Location: Shades State Park
(39.9310°N, 87.0690°W)
Time: 19:14:23
(UTC-04:00)

ISS - Visible Passes

Search period start: 05 July 2015 00:00
Search period end: 15 July 2015 00:00
Orbit: 398 x 403 km, 51.6° (Epoch: 05 July)

Date Brightness Start Highest point End Pass type
(mag) Time Alt. Az. Time Alt. Az. Time Alt. Az.
10 Jul -0.4 05:40:52 10° SE 05:41:08 10° SE 05:41:32 10° ESE visible
12 Jul -1.5 05:27:23 10° S 05:30:02 23° SE 05:32:43 10° ENE visible
13 Jul -0.8 04:35:58 11° SE 04:36:33 12° SE 04:37:53 10° ESE visible
14 Jul -3.0 05:17:01 21° SSW 05:18:56 56° SE 05:22:08 10° ENE visible
